Location: Barcelona
(41.3829°N, 2.1774°E)
Time: 21:20:04
(UTC+00:00)

ISS - Pass Details

Date: 07 July 2025
Orbit: 413 x 417 km, 51.6° (Epoch: 13 July)

Event Time Altitude Azimuth Distance (km) Brightness Sun altitude
Rises 19:57:27 0° 193° (SSW) 2,333 -0.2 -5.5°
Reaches altitude 10° 20:00:07 10° 169° (S) 1,477 -1.4 -5.9°
Maximum altitude 20:02:10 16° 131° (SE) 1,192 -2.1 -6.3°
Drops below altitude 10° 20:04:14 10° 93° (E) 1,485 -1.5 -6.6°
Sets 20:06:55 0° 70° (ENE) 2,353 -0.3 -7.0°
